EW6308 Weather Reports


Display with metric or nautical units.
time (UTC)temp
F
wind
direction
speed
MPH
gust
MPH
rain 1hr
in
rain 24hr
in
rain mn
in
humidity
%
barometer
mb
20260505024657 75 238 4.0 7.0 0.00 0.00 0.00 72 1010.1
20260505024154 75 195 6.0 9.0 0.00 0.00 0.00 72 1010.0
20260505023651 75 168 5.0 7.0 0.00 0.00 0.00 72 1009.9
20260505023149 75 223 6.0 7.0 0.00 0.00 0.00 71 1010.0
20260505022646 75 183 6.0 10.0 0.00 0.00 0.00 71 1009.8
20260505022143 75 165 6.0 9.0 0.00 0.00 0.00 71 1009.8
20260505021639 76 204 4.0 9.0 0.00 0.00 0.00 70 1009.8
20260505021136 76 170 3.0 10.0 0.00 0.00 0.00 70 1009.9
20260505020632 76 207 3.0 7.0 0.00 0.00 0.00 69 1009.8
20260505020128 76 210 3.0 10.0 0.00 0.00 0.00 69 1009.6
20260505015625 76 175 9.0 11.0 0.00 0.00 0.00 69 1009.3
20260505015122 76 157 8.0 11.0 0.00 0.00 0.00 69 1009.3
20260505014618 76 143 4.0 11.0 0.00 0.00 0.00 69 1009.3
20260505014116 76 177 6.0 10.0 0.00 0.00 0.00 69 1009.6
20260505013613 76 173 9.0 11.0 0.00 0.00 0.00 69 1009.6
20260505013110 76 166 6.0 8.0 0.00 0.00 0.00 69 1009.6
20260505012608 76 163 2.0 9.0 0.00 0.00 0.00 68 1009.6
20260505012105 77 195 6.0 11.0 0.00 0.00 0.00 68 1009.6
20260505011600 77 128 3.0 8.0 0.00 0.00 0.00 68 1009.6
20260505011058 77 193 2.0 11.0 0.00 0.00 0.00 67 1009.7
20260505010553 77 168 3.0 6.0 0.00 0.00 0.00 67 1009.7
20260505010050 77 176 7.0 9.0 0.00 0.00 0.00 66 1009.7
20260505005546 78 194 9.0 9.0 0.00 0.00 0.00 65 1009.5
20260505005044 78 176 4.0 14.0 0.00 0.00 0.00 65 1009.6
20260505004540 78 171 5.0 13.0 0.00 0.00 0.00 65 1009.8
20260505004037 78 149 4.0 11.0 0.00 0.00 0.00 64 1009.7
20260505003535 78 162 6.0 10.0 0.00 0.00 0.00 63 1009.6
20260505003032 79 200 9.0 11.0 0.00 0.00 0.00 63 1009.6
20260505002532 79 182 8.0 16.0 0.00 0.00 0.00 62 1009.7
20260505002031 79 191 9.0 15.0 0.00 0.00 0.00 62 1009.6
20260505001528 79 187 5.0 11.0 0.00 0.00 0.00 61 1009.6
20260505001025 79 189 6.0 14.0 0.00 0.00 0.00 61 1010.0
20260505000523 80 171 6.0 15.0 0.00 0.00 0.00 61 1009.9
20260505000020 80 199 7.0 15.0 0.00 0.00 0.00 60 1009.9
20260504235517 80 216 11.0 23.0 0.00 0.00 0.00 60 1009.6
20260504235013 80 155 6.0 15.0 0.00 0.00 0.00 60 1009.9
20260504234510 80 156 9.0 15.0 0.00 0.00 0.00 60 1009.9
20260504234007 80 211 10.0 18.0 0.00 0.00 0.00 60 1010.0
20260504233502 80 229 6.0 21.0 0.00 0.00 0.00 60 1010.0
20260504233000 80 185 8.0 16.0 0.00 0.00 0.00 60 1010.1
20260504232457 80 197 8.0 17.0 0.00 0.00 0.00 60 1010.3
20260504231954 80 182 10.0 14.0 0.00 0.00 0.00 60 1010.2
20260504231450 80 176 9.0 15.0 0.00 0.00 0.00 60 1010.4
20260504230947 80 207 6.0 14.0 0.00 0.00 0.00 61 1010.2
20260504230443 80 181 6.0 9.0 0.00 0.00 0.00 60 1010.5
20260504225943 80 201 9.0 14.0 0.00 0.00 0.00 61 1010.5
20260504225439 80 167 7.0 14.0 0.00 0.00 0.00 60 1010.7
20260504224936 80 176 3.0 10.0 0.00 0.00 0.00 62 1010.7
20260504224432 79 142 4.0 14.0 0.00 0.00 0.00 61 1010.4
20260504223930 79 196 11.0 18.0 0.00 0.00 0.00 60 1010.5
20260504223425 79 214 6.0 13.0 0.00 0.00 0.00 60 1010.7
20260504222921 80 208 6.0 9.0 0.00 0.00 0.00 61 1010.6
20260504222419 80 182 9.0 16.0 0.00 0.00 0.00 60 1010.7
20260504221917 80 190 12.0 18.0 0.00 0.00 0.00 59 1011.0
20260504221413 80 201 11.0 14.0 0.00 0.00 0.00 59 1010.7
20260504220911 80 146 6.0 9.0 0.00 0.00 0.00 61 1010.9
20260504220407 80 145 9.0 16.0 0.00 0.00 0.00 60 1011.2
20260504215904 79 208 5.0 10.0 0.00 0.00 0.00 61 1010.9
20260504215401 79 186 9.0 15.0 0.00 0.00 0.00 60 1011.1
20260504214857 80 206 7.0 11.0 0.00 0.00 0.00 59 1011.0
20260504214354 80 167 4.0 15.0 0.00 0.00 0.00 60 1011.1
20260504213851 80 236 8.0 21.0 0.00 0.00 0.00 58 1011.3
20260504213346 81 213 10.0 16.0 0.00 0.00 0.00 58 1011.2
20260504212844 80 206 4.0 15.0 0.00 0.00 0.00 60 1011.6
20260504212340 80 170 5.0 15.0 0.00 0.00 0.00 59 1011.8
20260504211838 80 177 6.0 13.0 0.00 0.00 0.00 58 1011.6
20260504211334 81 178 12.0 15.0 0.00 0.00 0.00 58 1011.9
20260504210831 79 210 6.0 13.0 0.00 0.00 0.00 60 1011.6
20260504210328 80 220 10.0 14.0 0.00 0.00 0.00 59 1012.2
20260504205825 80 181 4.0 8.0 0.00 0.00 0.00 60 1012.2
20260504205323 80 198 8.0 10.0 0.00 0.00 0.00 59 1012.2
20260504204821 79 176 7.0 15.0 0.00 0.00 0.00 60 1012.3
20260504204319 79 202 12.0 17.0 0.00 0.00 0.00 59 1012.2
20260504203818 79 227 11.0 17.0 0.00 0.00 0.00 59 1012.3
20260504203315 79 240 11.0 18.0 0.00 0.00 0.00 59 1012.7
20260504202810 79 158 13.0 18.0 0.00 0.00 0.00 59 1012.8
20260504202308 79 218 11.0 21.0 0.00 0.00 0.00 59 1012.9
20260504201804 79 181 9.0 18.0 0.00 0.00 0.00 59 1013.0
20260504201302 79 190 6.0 16.0 0.00 0.00 0.00 60 1013.3
20260504200759 78 195 6.0 16.0 0.00 0.00 0.00 61 1013.2
20260504200255 78 218 9.0 14.0 0.00 0.00 0.00 60 1013.2
20260504195752 79 187 12.0 17.0 0.00 0.00 0.00 59 1013.4
20260504195248 79 161 10.0 19.0 0.00 0.00 0.00 59 1013.2
20260504194745 78 212 9.0 17.0 0.00 0.00 0.00 60 1013.5
20260504194241 78 162 11.0 18.0 0.00 0.00 0.00 60 1013.5
20260504193737 78 148 6.0 19.0 0.00 0.00 0.00 60 1013.6
20260504193235 78 213 9.0 14.0 0.00 0.00 0.00 61 1013.6
20260504192733 79 141 7.0 19.0 0.00 0.00 0.00 59 1013.6
20260504192231 79 151 15.0 19.0 0.00 0.00 0.00 59 1013.5
20260504191729 78 179 10.0 21.0 0.00 0.00 0.00 60 1013.7
20260504191226 78 222 12.0 16.0 0.00 0.00 0.00 60 1013.8
20260504190721 78 186 10.0 19.0 0.00 0.00 0.00 60 1013.9
20260504190218 78 194 13.0 24.0 0.00 0.00 0.00 59 1014.1
20260504185714 78 183 6.0 16.0 0.00 0.00 0.00 60 1013.9
20260504185211 78 222 10.0 17.0 0.00 0.00 0.00 61 1014.0
20260504184707 78 180 8.0 24.0 0.00 0.00 0.00 61 1014.1
20260504184203 77 150 8.0 21.0 0.00 0.00 0.00 61 1014.3
20260504183659 78 190 6.0 13.0 0.00 0.00 0.00 60 1014.6
20260504183156 78 149 11.0 15.0 0.00 0.00 0.00 60 1014.4
20260504182654 78 152 3.0 11.0 0.00 0.00 0.00 61 1014.5
20260504182151 77 208 8.0 10.0 0.00 0.00 0.00 61 1014.5
20260504181649 78 232 12.0 15.0 0.00 0.00 0.00 59 1014.6
20260504181146 78 215 5.0 16.0 0.00 0.00 0.00 61 1014.6
20260504180645 78 233 5.0 10.0 0.00 0.00 0.00 60 1014.8
20260504180143 78 226 4.0 10.0 0.00 0.00 0.00 61 1014.8
20260504175640 77 167 8.0 13.0 0.00 0.00 0.00 61 1014.9
20260504175137 77 185 9.0 21.0 0.00 0.00 0.00 60 1015.1
20260504174636 77 178 10.0 15.0 0.00 0.00 0.00 60 1015.2
20260504174131 78 244 4.0 14.0 0.00 0.00 0.00 60 1015.1
20260504173629 77 195 6.0 10.0 0.00 0.00 0.00 62 1015.3
20260504173126 76 166 9.0 14.0 0.00 0.00 0.00 61 1015.3
20260504172622 77 179 9.0 18.0 0.00 0.00 0.00 59 1015.2
20260504172119 76 219 4.0 19.0 0.00 0.00 0.00 62 1015.2
20260504171616 76 214 3.0 11.0 0.00 0.00 0.00 62 1015.4
20260504171113 76 160 8.0 17.0 0.00 0.00 0.00 62 1015.7
20260504170609 76 205 9.0 14.0 0.00 0.00 0.00 60 1015.7
20260504170107 76 181 9.0 19.0 0.00 0.00 0.00 61 1015.8
20260504150952 70 255 4.0 16.0 0.00 0.00 0.00 66 1016.7
20260504150449 70 204 10.0 19.0 0.00 0.00 0.00 67 1016.7
20260504140916 66 167 2.0 4.0 0.00 0.00 0.00 74 1016.8
20260504140412 65 198 8.0 11.0 0.00 0.00 0.00 74 1017.0
20260504130337 61 185 5.0 7.0 0.00 0.00 0.00 82 1016.7
20260504120300 58 208 4.0 4.0 0.00 0.00 0.00 87 1016.3
20260504110224 59 219 3.0 4.0 0.00 0.00 0.00 85 1016.7
20260504100148 59 199 4.0 4.0 0.00 0.00 0.00 85 1016.6
20260504090110 59 143 2.0 2.0 0.00 0.00 0.00 82 1016.9
20260504081541 60 184 2.0 3.0 0.00 0.00 0.00 79 1017.0
20260504081036 60 179 3.0 7.0 0.00 0.00 0.00 79 1017.2
20260504080533 60 187 3.0 4.0 0.00 0.00 0.00 79 1017.2
20260504050346 63 171 2.0 6.0 0.00 0.00 0.00 70 1019.0
20260504045843 63 189 3.0 4.0 0.00 0.00 0.00 70 1018.9
20260504045338 63 175 3.0 6.0 0.00 0.00 0.00 70 1019.0
20260504044835 63 192 2.0 3.0 0.00 0.00 0.00 69 1019.1
20260504044332 64 169 1.0 4.0 0.00 0.00 0.00 69 1019.1
20260504043830 64 221 2.0 3.0 0.00 0.00 0.00 68 1019.2
20260504043326 64 205 1.0 6.0 0.00 0.00 0.00 68 1019.1
20260504042824 64 204 2.0 4.0 0.00 0.00 0.00 68 1019.1
20260504042320 64 203 3.0 4.0 0.00 0.00 0.00 68 1019.2
20260504041816 64 202 3.0 4.0 0.00 0.00 0.00 68 1019.3
20260504041313 64 180 3.0 6.0 0.00 0.00 0.00 68 1019.2
20260504040809 65 184 2.0 4.0 0.00 0.00 0.00 67 1019.3
20260504040307 65 187 2.0 4.0 0.00 0.00 0.00 67 1019.5
20260504035802 65 174 3.0 4.0 0.00 0.00 0.00 66 1019.5
20260504035300 65 189 1.0 4.0 0.00 0.00 0.00 66 1019.2
20260504034757 65 184 4.0 4.0 0.00 0.00 0.00 65 1019.2
20260504034254 66 180 2.0 3.0 0.00 0.00 0.00 65 1019.3
20260504033751 66 145 3.0 4.0 0.00 0.00 0.00 64 1019.4
20260504033249 66 151 3.0 6.0 0.00 0.00 0.00 64 1019.2
20260504032746 66 192 3.0 4.0 0.00 0.00 0.00 64 1019.1
20260504032243 66 205 3.0 3.0 0.00 0.00 0.00 63 1019.2
20260504031739 66 184 3.0 6.0 0.00 0.00 0.00 63 1019.0
20260504031237 67 201 2.0 3.0 0.00 0.00 0.00 62 1019.1
20260504030732 67 162 2.0 3.0 0.00 0.00 0.00 62 1019.1
20260504030230 67 182 3.0 4.0 0.00 0.00 0.00 62 1019.0
20260504025726 67 182 1.0 3.0 0.00 0.00 0.00 62 1019.1
20260504025223 67 215 1.0 3.0 0.00 0.00 0.00 62 1019.2